Location: Prairie State College
(41.5244°N, 87.6382°W)
Time: 12:24:18
(UTC-05:00)

ISS - All Passes

Search period start: 24 April 2014 00:00
Search period end: 04 May 2014 00:00
Orbit: 413 x 418 km, 51.6° (Epoch: 24 April)

Date Brightness Start Highest point End Pass type
(mag) Time Alt. Az. Time Alt. Az. Time Alt. Az.
24 Apr - 12:22:36 10° SSE 12:24:01 12° SE 12:25:26 10° ESE daylight
24 Apr - 13:56:58 10° WSW 14:00:18 78° NW 14:03:39 10° NE daylight
24 Apr - 15:34:55 10° WNW 15:37:26 20° NNW 15:39:58 10° NNE daylight
24 Apr - 17:13:06 10° NNW 17:15:07 15° N 17:17:08 10° NE daylight
24 Apr - 18:49:36 10° NW 18:52:38 30° NNE 18:55:39 10° E daylight
24 Apr - 20:26:14 10° WNW 20:29:24 40° SW 20:32:34 10° SSE visible
25 Apr - 13:08:13 10° SW 13:11:30 60° SE 13:14:47 10° ENE daylight
25 Apr - 14:45:36 10° WNW 14:48:25 25° NNW 14:51:15 10° NE daylight
25 Apr - 16:24:03 10° NW 16:26:00 15° N 16:27:57 10° NE daylight
25 Apr - 18:00:53 10° NW 18:03:37 23° NNE 18:06:21 10° ENE daylight
25 Apr - 19:37:17 10° WNW 19:40:37 73° SW 19:43:57 10° SE daylight
26 Apr - 12:19:39 10° SSW 12:22:40 33° SE 12:25:42 10° ENE daylight
26 Apr - 13:56:17 10° W 13:59:21 34° NNW 14:02:27 10° NE daylight
26 Apr - 15:34:45 10° NW 15:36:48 15° N 15:38:52 10° NNE daylight
26 Apr - 17:12:03 10° NNW 17:14:29 18° NNE 17:16:55 10° ENE daylight
26 Apr - 18:48:21 10° NW 18:51:41 65° NNE 18:55:00 10° ESE daylight
26 Apr - 20:26:03 10° W 20:28:02 15° SW 20:30:00 10° SSW visible
27 Apr - 11:31:23 10° S 11:33:49 19° SE 11:36:15 10° E daylight
27 Apr - 13:07:00 10° WSW 13:10:15 52° NNW 13:13:32 10° NE daylight
27 Apr - 14:45:15 10° NW 14:47:32 17° NNW 14:49:49 10° NNE daylight
27 Apr - 16:23:04 10° NNW 16:25:13 16° N 16:27:22 10° NE daylight
27 Apr - 17:59:24 10° NW 18:02:36 40° NNE 18:05:46 10° E daylight
27 Apr - 19:36:20 10° WNW 19:39:10 26° SW 19:41:59 10° SSE daylight
28 Apr - 10:44:07 10° SE 10:44:56 11° SE 10:45:45 10° ESE daylight
28 Apr - 12:17:49 10° SW 12:21:08 87° NW 12:24:29 10° NE daylight
28 Apr - 13:55:38 10° WNW 13:58:12 20° NNW 14:00:47 10° NNE daylight
28 Apr - 15:33:53 10° NNW 15:35:50 15° N 15:37:48 10° NE daylight
28 Apr - 17:10:24 10° NW 17:13:21 28° NNE 17:16:18 10° E daylight
28 Apr - 18:46:57 10° WNW 18:50:10 45° SW 18:53:21 10° SSE daylight
29 Apr - 11:28:45 10° SW 11:31:59 52° SE 11:35:14 10° ENE daylight
29 Apr - 13:05:57 10° W 13:08:50 26° NNW 13:11:43 10° NE daylight
29 Apr - 14:44:25 10° NW 14:46:22 14° N 14:48:18 10° NNE daylight
29 Apr - 16:21:19 10° NW 16:23:58 21° NNE 16:26:37 10° ENE daylight
29 Apr - 17:57:39 10° NW 18:01:00 83° SW 18:04:19 10° SE daylight
30 Apr - 10:39:54 10° SSW 10:42:48 29° SE 10:45:44 10° ENE daylight
30 Apr - 12:16:17 10° W 12:19:25 37° NNW 12:22:33 10° NE daylight
30 Apr - 13:54:43 10° NW 13:56:48 15° N 13:58:53 10° NNE daylight
30 Apr - 15:32:07 10° NNW 15:34:28 17° NNE 15:36:48 10° ENE daylight
30 Apr - 17:08:23 10° NW 17:11:41 57° NNE 17:14:58 10° ESE daylight
30 Apr - 18:45:49 10° W 18:48:03 17° SW 18:50:17 10° S daylight
01 May - 09:51:26 10° S 09:53:36 16° SE 09:55:47 10° E daylight
01 May - 11:26:41 10° WSW 11:29:58 59° NNW 11:33:16 10° NE daylight
01 May - 13:04:49 10° WNW 13:07:10 18° NNW 13:09:31 10° NNE daylight
01 May - 14:42:45 10° NNW 14:44:49 15° N 14:46:53 10° NE daylight
01 May - 16:19:05 10° NW 16:22:12 36° NNE 16:25:19 10° E daylight
01 May - 17:55:52 10° WNW 17:58:49 29° SW 18:01:45 10° SSE daylight
02 May - 10:37:11 10° SW 10:40:30 80° SE 10:43:49 10° ENE daylight
02 May - 12:14:50 10° WNW 12:17:29 22° NNW 12:20:08 10° NE daylight
02 May - 13:53:09 10° NNW 13:55:04 14° N 13:57:00 10° NE daylight
02 May - 15:29:44 10° NW 15:32:35 26° NNE 15:35:26 10° E daylight
02 May - 17:06:10 10° WNW 17:09:26 54° SW 17:12:40 10° SE daylight
03 May - 09:47:50 10° SSW 09:51:00 43° SE 09:54:10 10° ENE daylight
03 May - 11:24:48 10° W 11:27:45 29° NNW 11:30:42 10° NE daylight
03 May - 13:03:16 10° NW 13:05:13 15° N 13:07:10 10° NNE daylight
03 May - 14:40:17 10° NNW 14:42:50 20° NNE 14:45:22 10° ENE daylight
03 May - 16:16:33 10° NW 16:19:53 84° NE 16:23:12 10° SE daylight
03 May - 17:55:01 10° WSW 17:56:04 11° SW 17:57:08 10° SSW daylight
